Location: Eschertshofen
(49.3064°N, 11.5756°E)
Time: 22:14:03
(UTC+00:00)

USA 238 - Pass Details

Date: 18 September 2020
Orbit: 1006 x 1206 km, 63.4° (Epoch: 15 October)

Event Time Altitude Azimuth Distance (km) Brightness Sun altitude
Rises 19:32:25 0° 317° (NW) 3,941 8.0 -21.5°
Reaches altitude 10° 19:35:04 10° 315° (NW) 3,008 7.1 -21.8°
Maximum altitude 19:42:12 69° 234° (SW) 1,240 4.0 -22.8°
Enters shadow 19:45:44 33° 162° (SSE) 1,855 4.5 -23.3°
